Theta_e
352 353 349 348 348 346 348 349 348 346 349 352 352 351 350 352 351 349 348 352 350 350 353 355 355 356 357 357 355 356 355 354 353 352 350 349 348 348 349 348 348 348 348
351 350 351 351 353 350 348 347 346 348 347 348 349 351 350 351 352 352 349 351 351 350 352 354 356 357 358 359 357 356 355 353 353 352 351 349 347 348 348 348 348 347 347
356 352 349 351 350 351 349 350 349 348 345 344 344 346 348 351 351 352 355 352 349 350 351 353 354 355 356 359 358 357 355 353 352 350 350 349 348 347 347 348 348 348 346
355 354 351 348 348 347 346 344 343 342 341 340 341 344 347 351 350 351 351 350 350 348 350 352 352 354 354 357 359 358 355 352 350 348 348 348 348 347 347 347 347 347 346
354 356 349 349 350 348 347 345 344 341 339 340 340 347 348 350 351 348 348 350 351 350 347 350 351 351 352 354 358 359 357 353 350 348 348 348 348 347 346 346 346 346 346
356 353 355 352 354 349 348 347 345 343 342 341 339 340 348 350 351 350 349 350 347 352 350 346 347 347 349 352 354 357 359 357 353 350 348 347 347 347 346 346 345 345 345
357 355 352 356 355 349 348 348 345 347 342 346 347 346 347 347 350 349 348 349 348 349 348 348 351 348 348 348 350 353 357 358 356 354 349 346 346 347 346 346 345 345 344
357 356 355 354 352 349 350 350 351 344 345 350 342 341 332 339 344 347 348 347 349 353 349 349 347 349 347 347 346 348 353 356 356 355 351 347 346 346 346 345 345 345 344
356 356 355 355 351 350 347 351 353 347 341 347 349 340 330 326 332 341 343 341 341 338 337 336 333 333 335 330 341 348 348 349 354 356 354 350 348 347 347 345 345 344 344
352 355 354 352 352 348 349 350 351 351 348 342 346 345 341 337 326 322 334 338 336 335 333 331 330 332 333 333 338 345 344 345 349 353 353 353 351 350 348 346 345 344 344
353 351 351 350 350 346 350 348 351 351 350 344 340 338 338 336 335 328 320 329 332 333 333 331 330 331 333 333 332 332 341 341 342 345 348 350 350 350 350 347 346 344 345
351 350 348 348 349 349 346 349 351 350 347 344 341 337 335 332 329 328 325 325 324 329 332 331 330 330 332 331 334 334 334 336 335 335 338 342 345 348 349 348 348 347 346
346 350 349 347 347 346 347 346 346 347 347 343 343 340 339 336 335 331 328 325 323 326 326 330 329 329 331 332 333 334 339 334 330 328 329 332 336 340 344 346 346 346 346
343 345 350 337 329 328 333 343 345 346 345 345 344 343 338 338 337 334 330 327 323 325 328 327 331 332 333 334 335 339 341 332 328 326 326 326 328 331 334 339 341 340 340
342 342 344 340 331 325 328 334 342 343 344 345 344 345 344 345 342 339 336 333 328 321 322 327 326 332 335 341 342 342 343 336 330 327 325 324 325 327 329 331 333 334 334
342 342 344 333 324 326 327 336 338 341 342 344 343 344 342 342 341 340 338 337 332 327 322 329 331 332 333 339 341 339 341 331 331 328 326 324 322 324 326 326 327 330 331
340 339 340 337 335 334 324 324 321 324 339 340 341 341 340 339 338 336 337 333 332 331 323 327 332 335 334 332 337 338 341 339 339 330 329 325 321 322 322 324 324 326 327
330 332 337 336 334 329 320 317 313 326 330 335 337 335 335 336 337 335 332 328 325 328 324 320 324 325 326 330 331 333 336 342 339 336 328 323 321 320 319 321 320 321 321
324 326 328 330 331 329 327 331 330 331 327 329 331 331 332 331 329 328 329 328 325 325 322 319 318 320 320 321 321 324 333 335 338 335 325 323 321 320 319 318 317 317 316
320 321 322 326 326 327 327 327 328 330 328 328 330 329 328 326 327 327 327 326 324 322 320 320 317 317 318 321 324 323 326 329 330 336 332 327 323 320 318 317 317 317 315
319 319 319 322 323 326 323 326 325 328 329 328 330 327 328 327 327 327 326 325 322 318 316 314 313 312 312 315 314 317 320 325 327 332 332 335 329 326 322 317 322 320 314
318 318 318 321 322 323 310 309 324 328 329 328 326 325 326 320 317 313 312 312 316 317 316 314 312 311 314 316 317 317 318 317 316 330 329 331 335 331 331 327 320 318 315
316 314 316 317 318 321 312 306 306 326 326 326 325 325 323 323 321 321 311 310 309 308 310 316 315 316 316 318 319 319 319 320 319 325 328 325 331 332 337 335 318 316 311
316 315 315 316 317 319 307 304 305 318 323 328 327 327 327 325 322 323 323 318 318 319 316 314 314 316 319 322 323 319 316 316 317 320 322 316 325 330 330 332 316 313 311
316 315 314 313 313 316 308 305 308 319 318 319 324 329 328 327 316 306 323 321 322 322 315 308 309 307 304 300 303 309 310 312 314 317 324 325 328 327 328 329 322 309 307
314 315 315 316 313 315 307 301 306 320 318 318 316 327 312 323 310 304 320 321 319 319 320 319 320 311 305 312 305 309 314 314 316 318 327 326 327 326 321 330 325 315 311
Wind_Speed
5 5 5 5 8 8 9 6 5 2 3 6 6 6 6 3 3 1 3 14 13 12 14 14 14 12 11 12 11 13 13 12 12 12 12 11 11 11 11 11 10 9 9
5 6 5 5 5 6 7 6 6 6 5 6 5 4 4 5 4 5 3 4 11 13 15 15 15 14 13 12 12 14 14 13 13 12 12 12 11 11 12 13 12 11 11
8 8 8 6 5 5 6 4 5 4 4 4 6 6 5 7 6 6 5 4 6 15 15 15 15 16 15 14 14 15 15 14 14 13 12 12 12 12 12 14 13 14 13
12 9 6 9 9 9 9 8 6 5 7 8 8 9 8 7 7 6 4 5 5 5 13 16 16 16 16 16 17 17 16 15 15 14 13 14 14 13 13 13 14 15 14
14 8 9 8 8 6 5 5 4 5 5 5 6 5 5 4 5 5 8 7 6 6 5 14 16 15 15 17 18 18 18 15 15 14 14 14 14 14 13 13 14 15 15
13 10 8 10 7 8 7 6 7 5 5 5 7 5 5 5 5 4 3 5 5 8 6 6 7 8 15 18 18 19 19 17 17 16 15 14 14 15 14 14 14 15 15
14 13 11 10 11 10 9 8 7 8 6 5 3 3 2 4 4 4 4 5 6 5 5 5 4 4 6 19 17 18 18 16 17 16 16 16 16 16 15 15 14 14 15
14 13 13 13 11 9 9 10 8 6 6 6 5 3 3 3 5 5 4 4 4 3 7 6 6 7 12 7 7 13 12 15 19 18 18 17 16 17 17 15 14 14 15
13 15 15 14 13 11 12 13 8 11 9 5 7 5 4 5 4 2 4 2 1 2 3 3 3 3 5 16 28 10 16 18 19 19 20 19 18 18 17 16 16 15 16
17 17 19 16 16 12 13 11 11 10 9 6 4 4 2 2 2 3 3 3 1 3 3 2 4 4 8 8 25 27 9 16 17 20 21 19 19 20 21 17 17 15 15
18 20 19 20 16 14 12 14 13 14 11 10 6 5 5 3 3 4 4 2 1 3 3 2 3 1 1 2 15 18 24 13 16 17 17 18 19 20 19 17 16 15 15
11 20 21 18 16 15 16 12 12 15 12 8 5 5 5 5 5 4 5 4 4 5 4 3 4 4 6 10 21 24 24 17 12 13 14 14 16 16 18 18 18 17 17
10 14 20 17 15 10 8 14 14 13 15 12 10 6 6 8 6 7 5 5 4 4 4 5 6 7 8 9 15 23 24 15 9 7 12 13 13 15 17 15 18 18 17
13 17 3 10 14 14 16 21 16 14 13 10 11 8 4 4 6 6 6 5 4 4 4 5 4 6 8 8 14 12 5 10 9 11 13 11 13 12 13 11 13 15 14
12 16 11 11 15 26 32 29 20 18 13 12 12 11 7 3 4 4 6 5 6 5 7 4 4 5 4 4 7 5 4 6 9 11 12 12 12 13 12 11 14 13 14
13 15 15 10 15 14 20 7 12 7 10 9 7 8 8 5 5 4 4 4 5 8 6 4 4 4 5 4 4 5 6 9 11 12 13 13 13 13 14 12 15 15 14
11 15 15 6 9 10 5 2 5 24 11 8 6 8 9 7 4 4 2 1 4 3 6 6 4 5 3 4 5 6 6 6 6 10 11 13 12 13 11 14 15 15 14
12 17 14 10 8 10 10 12 8 28 7 8 8 7 7 6 7 5 2 2 2 4 2 3 3 3 4 4 5 7 6 5 5 8 10 8 12 12 10 13 13 13 13
12 19 16 14 11 13 11 12 24 17 6 3 6 9 8 5 5 3 3 3 3 4 4 3 4 3 3 4 6 6 6 4 4 6 6 8 7 9 11 12 12 13 13
5 10 14 22 8 2 3 5 5 5 6 6 6 5 7 7 6 5 3 3 2 2 3 3 4 4 4 5 3 4 5 3 5 4 5 6 6 8 10 12 12 13 14
7 9 8 15 22 6 9 8 10 10 7 7 7 7 8 8 8 6 4 4 3 1 2 3 4 4 4 4 5 4 4 4 5 3 4 4 3 4 5 8 9 14 12
9 10 7 5 11 14 20 7 7 5 6 6 6 6 6 11 9 11 8 7 5 3 3 2 4 4 5 4 4 6 6 6 5 3 2 6 4 6 5 6 10 11 13
11 12 9 5 6 5 20 15 11 4 6 5 6 7 8 7 9 7 9 9 8 10 10 6 6 5 5 5 5 8 7 7 8 4 5 8 3 8 5 4 10 12 13
11 12 12 12 10 10 11 6 5 5 5 6 8 6 6 7 11 11 9 9 9 9 9 8 9 10 8 8 7 5 7 7 9 8 3 9 6 8 3 4 12 15 14
11 11 13 14 15 14 14 12 5 3 2 8 13 12 11 9 9 14 9 8 9 8 7 11 12 11 10 10 9 4 8 7 10 10 6 9 6 3 3 3 2 11 14
11 10 12 13 16 13 13 12 7 4 6 7 20 9 14 14 14 14 10 7 6 8 5 5 3 3 8 9 13 8 7 8 9 9 5 5 4 3 2 2 3 4 4
Wind_Direction
206 194 194 210 191 175 202 203 210 191 206 213 225 226 228 253 306 290 202 182 195 194 198 201 210 211 223 228 216 219 220 215 220 221 221 220 222 221 232 235 235 236 228
219 181 206 211 214 187 190 183 194 184 187 211 246 269 242 243 260 268 257 182 195 208 212 210 208 209 211 218 210 210 218 216 224 219 225 225 222 225 230 233 229 232 227
203 192 189 200 220 212 209 205 194 170 193 219 223 230 217 226 223 239 245 225 201 213 216 216 220 210 207 205 205 209 210 215 222 221 221 228 225 222 228 233 228 227 228
199 192 201 199 203 213 203 191 193 188 197 212 215 210 202 199 205 208 223 251 227 214 212 212 218 218 212 204 204 207 210 213 219 219 216 224 224 222 224 231 232 225 222
199 192 221 217 207 214 210 204 213 214 211 217 217 209 208 218 214 226 226 219 243 225 203 205 209 214 216 210 207 210 210 209 221 221 221 222 227 219 223 227 232 230 223
192 204 214 235 204 217 209 202 197 211 210 201 230 231 194 193 217 213 260 298 279 255 210 222 184 210 220 218 213 211 213 208 221 224 224 222 224 224 216 220 226 229 229
196 204 220 220 234 210 210 203 204 202 211 221 207 251 202 219 220 219 191 228 243 270 252 222 193 184 214 225 212 215 221 211 220 234 232 218 222 220 221 215 220 222 224
199 210 210 227 221 212 212 216 195 200 211 205 190 183 259 244 250 215 215 216 298 279 357 0 14 11 5 330 274 245 228 232 229 222 230 230 222 226 211 215 215 220 221
212 212 217 221 221 214 210 214 197 199 209 208 203 156 204 218 191 163 199 119 321 6 344 42 355 10 356 328 314 239 230 232 235 232 228 226 224 227 217 207 213 214 219
212 212 216 221 218 226 218 209 204 198 204 209 149 186 194 116 245 243 202 189 170 271 284 122 321 332 72 330 296 309 276 234 233 236 233 228 228 227 218 200 212 208 217
207 213 209 212 218 214 226 210 194 195 196 203 173 166 181 169 188 238 265 220 290 245 231 183 149 108 127 343 296 289 286 239 231 225 227 229 229 231 229 194 206 204 209
215 218 219 218 208 219 220 212 200 192 197 187 195 215 170 160 187 188 227 264 252 248 207 191 192 178 198 219 246 257 264 255 238 244 240 237 243 235 219 202 197 208 206
272 224 219 221 229 214 225 242 224 196 193 190 188 196 178 186 183 191 200 235 243 246 252 204 210 215 237 224 242 246 253 241 259 271 261 246 248 249 236 220 196 197 203
273 281 189 185 127 293 278 260 239 206 188 183 180 199 193 216 188 193 190 184 246 247 227 244 210 212 236 237 241 220 218 204 218 238 255 256 245 242 257 221 204 201 195
269 272 265 194 196 212 233 235 236 208 176 173 181 186 190 198 262 222 192 178 213 261 273 261 256 240 274 286 242 199 219 254 261 258 260 257 241 230 229 237 224 204 197
276 282 287 202 226 235 248 276 272 255 198 165 173 165 172 189 211 245 207 173 198 216 238 220 244 271 286 281 244 238 240 254 248 263 267 262 234 221 220 214 225 210 201
286 278 280 271 214 186 147 253 351 282 222 168 157 169 160 169 214 242 284 204 252 248 245 274 247 244 236 274 257 237 230 234 246 248 261 257 233 221 209 216 219 211 203
330 304 272 260 209 226 170 169 143 270 244 167 174 162 178 182 206 233 214 233 246 277 161 254 250 266 261 279 268 253 239 217 251 246 258 264 229 229 207 219 224 217 201
344 317 323 283 215 203 192 205 173 218 217 185 149 151 164 170 178 179 160 66 20 26 18 8 314 314 303 297 291 277 237 244 257 261 261 247 237 215 220 226 212 215 209
344 316 334 317 248 231 202 139 178 200 203 216 165 166 132 153 191 173 136 92 23 325 333 322 318 291 273 295 327 346 326 310 282 274 256 259 218 221 222 217 208 211 206
306 306 353 318 314 223 220 201 195 193 201 187 173 144 148 164 158 164 130 154 143 62 341 329 308 308 314 347 328 310 312 328 312 255 262 254 219 221 213 219 213 214 200
284 294 316 359 313 323 344 225 155 180 180 170 154 156 159 137 152 144 146 155 164 171 227 238 263 278 288 305 313 305 312 311 307 296 292 277 235 248 230 200 192 191 203
262 271 276 268 284 301 292 285 318 223 176 191 179 172 185 171 164 172 194 198 209 212 212 209 234 246 273 272 289 296 286 289 287 312 355 285 272 260 233 208 199 210 197
232 248 260 268 265 257 255 309 225 293 304 222 184 189 195 195 185 185 186 204 212 214 222 222 225 244 248 258 251 267 276 277 274 274 225 271 270 262 233 206 183 204 199
215 230 242 255 257 254 257 256 169 174 251 294 273 186 197 205 206 193 195 200 200 215 207 209 215 218 243 278 266 299 278 280 285 284 269 251 239 224 217 205 187 165 176
287 241 236 237 243 250 259 261 178 200 181 184 267 245 199 203 205 187 189 204 212 223 208 256 211 217 235 249 248 214 243 252 272 284 255 236 233 154 223 182 139 140 145